Regional Weather Roundup
Issued by NWS Grand Forks, ND

Home | Current Version | Previous Version | Text Only | Print | Product List | Glossary On
Versions: 1 2 3 4 5 6 7 8 9 10 11 12 13 14 15 16 17 18 19 20 21 22 23 24 25 26 27 28 29 30 31 32 33 34 35 36 37 38 39 40 41 42 43 44 45 46 47 48 49 50
000
ASUS43 KFGF 301631
RWRFGF
PRAIRIE TO PINES  WEATHER ROUNDUP
NATIONAL WEATHER SERVICE EASTERN NORTH DAKOTA/GRAND FORKS ND
1100 AM CDT FRI SEP 30 2016

 **SATELLITE DATA USED TO AUGMENT SKY COVER AT AUTOMATED STATIONS**
 *****  WEATHER ACROSS EASTERN NORTH DAKOTA  *****

CITY           SKY/WX    TMP DP  RH WIND       PRES   REMARKS
GRAND FORKS    FAIR      60  51  72 S14       30.31S
GRAND FRKS AFB FAIR      58  50  74 S12       30.30F
GRAND FRKS NWS   N/A     61 N/A N/A S12         N/A
DEVILS LAKE    FAIR      57  49  74 SE18G25   30.24
FARGO          FAIR      62  51  67 SE16      30.32F
WAHPETON ARPT  FAIR      59  50  72 SE10      30.33F
$$

 ***** WEATHER ACROSS CENTRAL AND WESTERN NORTH DAKOTA  *****

CITY           SKY/WX    TMP DP  RH WIND       PRES   REMARKS
BISMARCK       CLOUDY    59  48  67 SE13      30.16S
MINOT          FAIR      59  47  64 SE16G24   30.09F
JAMESTOWN      FAIR      58  49  72 S17G23    30.26S
MINOT AFB      FAIR      59  48  67 SE14      30.08S
GARRISON         N/A     57  48  72 SE14G22   30.09F
WILLISTON      PTSUNNY   60  47  61 S8        30.03R
DICKINSON      CLOUDY    56  44  64 S16       30.05S
HETTINGER      CLOUDY    59  43  55 SE12      30.10R
$$

 *****  OTHER AIRPORT OBSERVATIONS IN OUR AREA  *****

CITY           SKY/WX    TMP DP  RH WIND       PRES   REMARKS
WALHALLA       FAIR      55  50  82 SE10      30.28S
GRAFTON AIRPOR FAIR      59  52  77 S15G21    30.32S
VALLEY CITY AR FAIR      61  50  67 S15       30.30F
CANDO          FAIR      59  52  77 SE13G22   30.24S
CAVALIER APRT  FAIR      57  50  77 S10G18    30.29F
GWINNER        FAIR      64  52  63 SE14      30.30F
ROLLA          FAIR      55  48  76 S14G20    30.20S
 ***** THE ABOVE OBSERVATIONS ARE NON NWS ARE NOT QUALITY
       CONTROLLED AND MAY MIS-REPORT RAIN FOR SNOW...
$$

  *****  WEATHER ACROSS NORTHERN MINNESOTA  *****

CITY           SKY/WX    TMP DP  RH WIND       PRES   REMARKS
FLAG ISLAND    PTSUNNY   55  48  76 S9        30.37S
WARROAD        FAIR      59  54  82 SE7       30.37F
ROSEAU         HAZE      61  54  77 SE12      30.35F VSB 1
HALLOCK        FAIR      61  54  77 S17       30.31F
THF RVR FALLS  FAIR      54  50  86 SE12      30.36F
BAUDETTE       CLOUDY    48  46  93 SE10      30.41S
WASKISH        CLOUDY    52  50  93 SE6       30.40F
CROOKSTON      FAIR      61  52  72 SE13      30.33F
STEPHEN NDAWN    N/A     61  52  72 SE9         N/A
GREENBUSH NDAW   N/A     57  52  82 S8          N/A
$$
  *****  WEATHER ACROSS CENTRAL AND WEST MINNESOTA  *****

CITY           SKY/WX    TMP DP  RH WIND       PRES   REMARKS
FOSSTON        FAIR      57  55  94 SE7       30.36F
BEMIDJI        CLOUDY    51  51 100 SE7       30.39F FOG
PARK RAPIDS    CLOUDY    53  50  89 SE9       30.38F
ELBOW LAKE     FAIR      60  54  80 SE7       30.36S
WADENA         CLOUDY    50  50 100 E7        30.38F FOG
DETROIT LAKES  CLOUDY    52  52 100 S9        30.37F
MOORHEAD       FAIR      63  52  67 SE13      30.33F
FERGUS FALLS   FAIR      61  54  77 SE9       30.37F
MORRIS MN      PTSUNNY   59  54  82 SE8       30.34F
STAPLES        CLOUDY    50  50 100 CALM      30.39F
$$
  *****  WEATHER ELSEWHERE ACROSS MINNESOTA  *****

CITY           SKY/WX    TMP DP  RH WIND       PRES   REMARKS
DULUTH         CLOUDY    54  50  86 E10       30.43F
INTRNTL FALLS  CLOUDY    50  48  93 SE9       30.43S
ELY            PTSUNNY   55  48  76 SE6       30.44F
CLOQUET        PTSUNNY   55  48  76 E7        30.42F
WHEATON        FAIR      63  55  77 SE7       30.35F
BRAINERD       CLOUDY    53  50  89 SE6       30.41S
HIBBING        CLOUDY    51  47  86 SE7       30.44S
ALEXANDRIA     CLOUDY    52  52 100 E7        30.38F FOG
SAINT CLOUD    CLOUDY    52  52 100 E5        30.40S FOG
MINNEAPOLIS    FAIR      60  52  74 N8        30.36F
$$

  *****  WEATHER ACROSS SOUTH DAKOTA  *****

CITY           SKY/WX    TMP DP  RH WIND       PRES   REMARKS
SIOUX FALLS    FAIR      64  52  64 S8        30.32F
BROOKINGS      FAIR      61  52  72 SE9         N/A
WATERTOWN      FAIR      63  51  65 S10       30.32F
HURON          MOSUNNY   63  49  60 S13       30.28F
SISSETON         N/A     56  50  80 S10       30.32F
ABERDEEN       MOSUNNY   64  47  53 S14       30.28F
MITCHELL       SUNNY     63  49  60 SE9       30.30F
PIERRE         PTSUNNY   63  47  55 SE15      30.18S
MOBRIDGE       MOSUNNY   66  47  50 S23G30    30.14S
RAPID CITY     CLOUDY    61  45  55 S14       30.08S
$$

  *****  SOME WEATHER IN NEARBY STATES *****

CITY           SKY/WX    TMP DP  RH WIND       PRES   REMARKS
GLASGOW MT     CLOUDY    67  48  50 SE12      29.97R
GREAT FALLS MT MOSUNNY   63  45  51 SW13      30.03S
CHEYENNE WY    LGT RAIN  59  48  67 CALM      30.29R
SCOTTSBLUFF NE PTSUNNY   55  42  61 SE6       30.21R
OMAHA NE       FAIR      63  51  65 N3        30.30S
DES MOINES IA  CLOUDY    63  54  72 NE8       30.27S
DAVENPORT IA   CLOUDY    61  56  83 N17       30.20S
CHICAGO IL     LGT RAIN  62  59  90 NE14      30.15S FOG
EAU CLAIRE WI  FAIR      64  52  64 NE8       30.33F
LA CROSSE WI   PTSUNNY   64  54  69 N8        30.29F
$$

  *****  SOME NATIONAL WEATHER *****

CITY           SKY/WX    TMP DP  RH WIND       PRES   REMARKS
LA GUARDIA NY  LGT RAIN  62  57  83 NE24G32   30.29F
RALEIGH NC     PTSUNNY   77  70  79 S8        30.03S
ATLANTA GA     FAIR      68  50  52 VRB7      30.07S
NEW ORLEANS LA FAIR      80  56  43 NE10      30.14R
OKLAHOMA CITY  FAIR      68  47  46 VRB3      30.26S
ALBUQUERQUE NM MOSUNNY   62  54  74 SW6       30.35R
SALT LAKE CITY PTSUNNY   68  50  52 S14       30.21R
LOS ANGELES CA SUNNY     76  61  59 VRB3      30.04R
BOISE ID       SUNNY     72  45  37 SE7       30.06R
SEATTLE WA     FOG       49  47  93 SE5       30.05F VSB 1/8
$$

*** WEATHER ACROSS MANITOBA...SASKATCHEWAN AND ONTARIO ***
                ***ONTARIO***

CITY           SKY/WX    TMP DP  RH WIND       PRES   REMARKS
GERALDTON      PTSUNNY   59  52  77 SE6       30.49F
THUNDER BAY    MOSUNNY   55  54  94 S3        30.47F
SIOUX LOOKOUT  MOSUNNY   57  48  72 E7        30.44F
TORONTO        PTSUNNY   63  54  72 E18G25    30.32R
BIG TROUT LK   SUNNY     59  48  67 S7        30.40S
PICKLE LAKE    CLOUDY    54  46  76 S8        30.48F
DRYDEN         SUNNY     59  50  72 SE14      30.42F
KENORA         PTSUNNY   55  48  76 S9        30.39F
$$
                *** MANITOBA***

CITY           SKY/WX    TMP DP  RH WIND       PRES   REMARKS
BRANDON        PTSUNNY   57  50  77 SE14G21   30.17F
DAUPHIN        SUNNY     54  48  82 E9        30.15F
ISLAND LAKE    MOSUNNY   57  48  72 S6        30.31S
PILOT MOUND      N/A     61  50  67 SE22        N/A
THE PAS        MOSUNNY   59  50  72 SE12      30.12S
THOMPSON       CLOUDY    52  50  93 VRB2      30.22F
WINNIPEG       MOSUNNY   59  50  72 S13G18    30.30F
LYNN LAKE      CLOUDY    48  45  87 E7        30.21F
CHURCHILL      MOSUNNY   48  37  66 NE9       30.33R
GILLAM         CLOUDY    52  50  93 CALM      30.29S
$$
                ***SASKATCHEWAN***

CITY           SKY/WX    TMP DP  RH WIND       PRES   REMARKS
ESTEVAN        PTSUNNY   55  48  76 SE12G18   30.05S
KINDERSLEY     FOG       46  46 100 NE5       30.00R VSB 1/2
LLOYDMINSTER   PTSUNNY   54  46  76 NE9       30.04S
PRINCE ALBERT  MOSUNNY   55  48  76 E5        30.04R
REGINA         PTSUNNY   57  46  67 SE16      30.02S
YORKTON        SUNNY     57  48  72 SE16      30.08F
N. BATTLEFORD  CLOUDY    52  50  93 E8        30.03R
LA RONGE       CLOUDY    52  50  93 NE9       30.14
SASKATOON      MOSUNNY   57  48  72 SE5       30.00F
SWIFT CURRENT  SUNNY     57  48  72 W5        29.97S
$$
NOTE: THESE ARE AUTOMATED STATIONS WITH LIMITED QUALITY CONTROL
      "FAIR" INDICATES FEW OR NO CLOUDS BELOW 12,000 FEET WITH NO
      SIGNIFICANT WEATHER AND/OR OBSTRUCTIONS TO VISIBILITY.
      SKY/WX - SKY CONDITION AND SIGNIFICANT WEATHER.
      TMP - AIR TEMPERATURE.    DP   - DEWPOINT TEMPERATURE.
      RH  - RELATIVE HUMIDITY.  PRES - PRESSURE.
      HX  - HEAT INDEX.         WCI  - WIND CHILL INDEX.
$




USA.gov is the U.S. government's official web portal to all federal, state and local government web resources and services.